Time,TemperatureF,DewpointF,PressureIn,WindDirection,WindDirectionDegrees,WindSpeedMPH,WindSpeedGustMPH,Humidity,HourlyPrecipIn,Conditions,Clouds,dailyrainin,SoftwareType,DateUTC
2014-07-22 00:13:00,76.0,74.0,30.06,WSW,249,0.0,1.0,93,0.00,,,0.13,,2014-07-22 04:13:00,
2014-07-22 01:13:00,76.0,74.0,30.05,WSW,249,0.0,0.0,94,0.00,,,0.13,,2014-07-22 05:13:00,
2014-07-22 01:43:00,76.0,74.0,30.04,WSW,249,0.0,1.0,94,0.01,,,0.14,,2014-07-22 05:43:00,
2014-07-22 02:42:00,75.0,73.0,30.03,WSW,249,0.0,0.0,93,0.00,,,0.14,,2014-07-22 06:42:00,
2014-07-22 03:12:00,75.0,73.0,30.01,WSW,249,0.0,1.0,94,0.00,,,0.14,,2014-07-22 07:12:00,
2014-07-22 03:42:00,75.0,73.0,30.01,WSW,249,0.0,0.0,95,0.00,,,0.14,,2014-07-22 07:42:00,
2014-07-22 04:12:00,75.0,74.0,30.00,WSW,249,0.0,0.0,96,0.00,,,0.14,,2014-07-22 08:12:00,
2014-07-22 04:42:00,76.0,75.0,29.99,WSW,249,0.0,0.0,96,0.00,,,0.14,,2014-07-22 08:42:00,
2014-07-22 05:12:00,75.0,74.0,30.00,WSW,249,0.0,0.0,96,0.00,,,0.14,,2014-07-22 09:12:00,
2014-07-22 06:13:00,75.0,74.0,30.01,WSW,249,0.0,0.0,96,0.00,,,0.14,,2014-07-22 10:13:00,
2014-07-22 06:42:00,74.0,73.0,30.01,WSW,249,0.0,0.0,96,0.00,,,0.14,,2014-07-22 10:42:00,
2014-07-22 07:12:00,74.0,73.0,30.02,WSW,249,0.0,0.0,96,0.00,,,0.14,,2014-07-22 11:12:00,
2014-07-22 08:12:00,77.0,76.0,30.03,WSW,249,0.0,0.0,97,0.00,,,0.14,,2014-07-22 12:12:00,
2014-07-22 08:42:00,78.0,76.0,30.04,WSW,249,0.0,1.0,95,0.00,,,0.14,,2014-07-22 12:42:00,
2014-07-22 09:12:00,82.0,77.0,30.05,WSW,249,0.0,2.0,84,0.00,,,0.14,,2014-07-22 13:12:00,
2014-07-22 09:42:00,87.0,78.0,30.05,WSW,249,0.0,3.0,74,0.00,,,0.14,,2014-07-22 13:42:00,
2014-07-22 10:42:00,88.0,77.0,30.06,SW,221,2.0,6.0,70,0.00,,,0.14,,2014-07-22 14:42:00,
2014-07-22 11:12:00,86.0,76.0,30.06,SW,221,0.0,6.0,72,0.00,,,0.14,,2014-07-22 15:12:00,
2014-07-22 11:22:00,86.0,76.0,30.06,SW,221,0.0,6.0,72,0.00,,,0.14,,2014-07-22 15:22:00,
2014-07-22 11:44:00,89.0,77.0,30.06,SW,223,2.0,7.0,69,0.00,,,0.14,,2014-07-22 15:44:00,
2014-07-22 12:43:00,85.0,77.0,30.06,ESE,111,0.0,8.0,77,0.01,,,0.15,,2014-07-22 16:43:00,
2014-07-22 13:42:00,87.0,74.0,30.07,South,187,2.0,6.0,66,0.00,,,0.02,,2014-07-22 17:42:00,
2014-07-22 14:13:00,88.0,75.0,30.05,SSW,194,1.0,6.0,66,0.00,,,0.02,,2014-07-22 18:13:00,
2014-07-22 14:42:00,88.0,75.0,30.05,SSW,194,0.0,5.0,66,0.00,,,0.02,,2014-07-22 18:42:00,
2014-07-22 15:12:00,87.0,76.0,30.05,South,185,2.0,10.0,70,0.00,,,0.02,,2014-07-22 19:12:00,
2014-07-22 16:12:00,91.0,77.0,30.05,SSW,209,0.0,7.0,64,0.00,,,0.02,,2014-07-22 20:12:00,
2014-07-22 16:42:00,90.0,76.0,30.03,SSW,213,0.0,5.0,63,0.00,,,0.02,,2014-07-22 20:42:00,
2014-07-22 17:12:00,85.0,74.0,30.03,West,273,5.0,13.0,69,0.00,,,0.02,,2014-07-22 21:12:00,
2014-07-22 18:13:00,82.0,74.0,30.04,ESE,105,0.0,0.0,78,0.00,,,0.02,,2014-07-22 22:13:00,
2014-07-22 18:43:00,83.0,75.0,30.03,ESE,105,0.0,0.0,78,0.00,,,0.02,,2014-07-22 22:43:00,
2014-07-22 19:12:00,83.0,76.0,30.03,ESE,104,0.0,4.0,79,0.00,,,0.02,,2014-07-22 23:12:00,
2014-07-22 20:12:00,80.0,74.0,30.05,ESE,102,0.0,0.0,81,0.00,,,0.02,,2014-07-23 00:12:00,
2014-07-22 20:42:00,80.0,74.0,30.05,ESE,102,0.0,0.0,83,0.00,,,0.02,,2014-07-23 00:42:00,
2014-07-22 21:12:00,79.0,74.0,30.05,ESE,102,0.0,0.0,85,0.00,,,0.02,,2014-07-23 01:12:00,